Powrót do katalogu

COSMOS 2444

GLONASS

AktywnyNawigacjaMEO
NORAD 33380·PAYLOAD·🇷🇺 Russia

Wystrzelony Sep 25, 2008 z Baikonur Cosmodrome

Loading…

Następne Przeloty (najbliższe 24 godziny)

TLE

Starzejące sięSource: Space-Track

Epoka: Aug 30, 2026, 00:42 UTC

1 33380U 08046C   26242.02973212 -.00000023  00000-0  00000+0 0  9992
2 33380  65.4368 312.5353 0018694 288.3477  69.2646  2.13112216139511

Śledź COSMOS 2444 w czasie rzeczywistym z AllMySat

Download on the App Store